Waarnemingen

Advertentie
Mijn weer
Orange, Frankrijk (7579): temperatuur & dauwpunt: 17.05.2019 11:00:00 - 23.05.2019 11:00:00 (CEST)Orange, Frankrijk (7579): temperatuur 5cm: 17.05.2019 11:00:00 - 23.05.2019 11:00:00 (CEST)Orange, Frankrijk (7579): windsnelheid & windstoten: 17.05.2019 11:00:00 - 23.05.2019 11:00:00 (CEST)Orange, Frankrijk (7579): windrichting: 17.05.2019 11:00:00 - 23.05.2019 11:00:00 (CEST)Orange, Frankrijk (7579): luchtdruk: 17.05.2019 11:00:00 - 23.05.2019 11:00:00 (CEST)Orange, Frankrijk (7579): zicht: 17.05.2019 11:00:00 - 23.05.2019 11:00:00 (CEST)Orange, Frankrijk (7579): neerslag: 17.05.2019 11:00:00 - 23.05.2019 11:00:00 (CEST)
Datum & Tijd tt [°C] td [°C] tt 5cm [°C] ff [km/u] ff [kn] fx [km/u] fx [kn] dd ppp [hPa] vv [km] rr [mm]
23.05.2019 11:00:00 21,8 6,1 26,8 15 8 29 16 N 1017,1 53 0,0
23.05.2019 10:00:00 20,3 5,9 23,0 19 11 29 16 N 1017,6 36 0,0
23.05.2019 09:00:00 18,8 5,9 20,1 15 8 23 12 N 1017,2 22 0,0
23.05.2019 08:00:00 17,0 6,5 14,7 11 6 20 11 NNW 1016,7 17 0,0
23.05.2019 07:00:00 15,3 5,8 10,4 13 7 34 19 NNW 1016,4 8 0,0
23.05.2019 06:00:00 13,5 5,9 9,8 10 5 23 13 WNW 1016,2 58 0,0
23.05.2019 05:00:00 14,5 6,1 12,3 15 8 34 18 NNW 1016,1 58 0,0
23.05.2019 04:00:00 15,1 6,6 13,3 21 12 31 17 NNW 1016,1 59 0,0
23.05.2019 03:00:00 15,9 6,9 11,7 20 11 30 16 NNW 1016,3 56 0,0
23.05.2019 02:00:00 16,3 7,0 14,1 16 9 29 16 NNW 1016,3 59 0,0
23.05.2019 01:00:00 17,2 6,7 15,1 18 10 35 19 NNW 1016,2 60 0,0
23.05.2019 00:00:00 18,6 6,1 16,6 24 13 44 24 N 1016,1 60 0,0
22.05.2019 23:00:00 19,1 6,2 17,2 27 14 42 23 N 1016,1 60 0,0
22.05.2019 22:00:00 20,1 5,7 18,0 26 14 51 27 N 1015,8 59 0,0
22.05.2019 21:00:00 21,6 5,9 19,8 30 16 54 29 N 1015,1 60 0,0
22.05.2019 20:00:00 23,2 5,6 24,1 35 19 55 30 N 1014,8 20 0,0
22.05.2019 19:00:00 24,4 6,2 28,4 34 18 55 30 N 1014,5 15 0,0
22.05.2019 18:00:00 25,2 7,3 30,7 34 19 64 35 NNW 1014,5 12 0,0
22.05.2019 17:00:00 25,6 8,1 32,4 35 19 59 32 N 1014,6 14 0,0
22.05.2019 16:00:00 25,3 7,9 27,5 36 19 59 32 N 1014,6 17 0,0
22.05.2019 15:00:00 25,7 9,5 32,6 31 17 55 30 N 1014,7 18 0,0
22.05.2019 14:00:00 24,5 9,2 31,2 38 20 57 31 N 1015,2 18 0,0
22.05.2019 13:00:00 23,5 9,5 29,1 36 19 61 33 N 1015,4 21 0,0
22.05.2019 12:00:00 22,5 8,9 23,5 37 20 55 30 N 1015,6 24 0,0
22.05.2019 11:00:00 21,1 8,7 25,1 35 19 54 29 N 1015,6 22 0,0
22.05.2019 10:00:00 19,8 8,5 21,9 31 17 54 29 N 1015,7 19 0,0
22.05.2019 09:00:00 18,1 8,6 18,9 34 18 52 28 N 1015,7 20 0,0
22.05.2019 08:00:00 16,7 8,1 15,3 28 15 48 26 N 1015,5 24 0,0
22.05.2019 07:00:00 15,6 7,9 13,4 31 17 54 29 N 1015,1 32 0,0
22.05.2019 06:00:00 15,1 8,6 13,2 21 11 38 21 N 1014,7 51 0,0
22.05.2019 05:00:00 15,5 8,7 13,9 26 14 48 26 NNW 1014,4 47 0,0
22.05.2019 04:00:00 15,9 8,9 14,3 28 15 52 28 NNW 1014,4 49 0,0
22.05.2019 03:00:00 16,3 9,2 14,7 29 16 49 26 N 1014,3 50 0,0
22.05.2019 02:00:00 17,0 9,2 15,3 27 15 55 30 N 1014,2 49 0,0
22.05.2019 01:00:00 17,3 9,5 15,9 34 18 52 28 N 1014,2 48 0,0
22.05.2019 00:00:00 17,8 9,9 16,6 34 18 56 30 NNW 1014,4 44 0,0
21.05.2019 23:00:00 18,5 9,6 17,1 37 20 62 33 N 1014,1 45 0,0
21.05.2019 22:00:00 19,3 9,8 17,5 31 17 54 29 N 1013,5 40 0,0
21.05.2019 21:00:00 20,0 8,3 18,5 32 18 68 37 N 1013,0 45 0,0
21.05.2019 20:00:00 21,2 7,8 22,2 44 24 69 37 N 1012,2 13 0,0
21.05.2019 19:00:00 22,7 8,0 26,1 32 17 69 37 N 1011,8 13 0,0
21.05.2019 18:00:00 23,2 7,7 27,5 40 22 66 36 NNW 1011,6 7 0,0
21.05.2019 17:00:00 23,7 8,5 28,0 42 23 68 37 NNW 1011,7 9 0,0
21.05.2019 16:00:00 23,4 8,3 26,9 43 23 67 36 NNW 1012,1 12 0,0
21.05.2019 15:00:00 23,0 8,7 29,2 42 23 69 37 NNW 1012,1 8 0,0
21.05.2019 14:00:00 22,4 9,2 24,7 42 23 71 38 N 1012,3 10 0,0
21.05.2019 13:00:00 21,5 10,3 23,6 35 19 69 37 NNW 1012,6 11 0,0
21.05.2019 12:00:00 20,2 10,0 24,3 41 22 63 34 NNW 1012,7 12 0,0
21.05.2019 11:00:00 20,2 10,9 23,1 37 20 67 36 N 1012,5 10 0,0
21.05.2019 10:00:00 18,9 11,2 19,7 32 17 56 30 N 1012,7 10 0,0
21.05.2019 09:00:00 17,4 11,0 13,9 29 16 53 28 N 1012,6 9 0,0
21.05.2019 08:00:00 15,9 10,9 13,3 27 14 46 25 NNW 1012,1 9 0,0
21.05.2019 07:00:00 14,6 10,8 12,1 27 15 44 24 NNW 1011,7 10 0,0
21.05.2019 06:00:00 14,3 10,5 11,8 26 14 45 24 NNW 1011,8 16 0,0
21.05.2019 05:00:00 13,9 10,7 11,9 19 10 40 21 NNW 1012,0 19 0,0
21.05.2019 04:00:00 14,5 10,5 12,3 24 13 43 23 NNW 1012,0 24 0,0
21.05.2019 03:00:00 14,4 10,6 12,3 16 9 32 17 NNW 1012,3 24 0,0
21.05.2019 02:00:00 14,6 10,8 12,3 22 12 32 18 NNW 1012,3 26 0,0
21.05.2019 01:00:00 14,5 10,9 12,8 22 12 37 20 NNW 1012,5 28 0,0
21.05.2019 00:00:00 15,1 10,9 13,1 23 13 39 21 NNW 1012,1 34 0,0
20.05.2019 23:00:00 15,2 10,6 13,0 18 10 30 16 NNW 1011,9 44 0,0
20.05.2019 22:00:00 16,2 10,3 13,8 22 12 33 18 N 1011,2 42 0,0
20.05.2019 21:00:00 17,1 9,8 15,0 20 11 37 20 NNW 1010,7 45 0,0
20.05.2019 20:00:00 18,3 9,9 16,8 23 13 43 23 N 1010,2 46 0,0
20.05.2019 19:00:00 19,2 10,2 18,6 24 13 47 25 N 1009,7 44 0,0
20.05.2019 18:00:00 20,2 10,0 22,0 32 17 52 28 N 1009,2 24 0,0
20.05.2019 17:00:00 22,2 10,0 31,2 32 17 46 25 N 1008,8 16 0,0
20.05.2019 16:00:00 22,6 10,1 24,8 26 14 47 26 N 1008,9 17 0,0
20.05.2019 15:00:00 21,9 11,0 27,4 32 17 49 27 N 1009,0 17 0,0
20.05.2019 14:00:00 21,7 10,5 27,7 29 16 45 25 N 1009,0 19 0,0
20.05.2019 13:00:00 20,8 11,4 26,1 27 14 43 23 N 1008,8 19 0,0
20.05.2019 12:00:00 19,9 10,9 22,2 27 15 45 24 N 1008,6 20 0,0
20.05.2019 11:00:00 18,5 12,3 18,1 24 13 37 20 N 1008,6 20 0,0
20.05.2019 10:00:00 15,9 12,6 15,6 20 11 34 18 N 1008,5 23 0,0
20.05.2019 09:00:00 15,1 12,4 12,9 19 10 30 16 N 1008,2 21 0,0
20.05.2019 08:00:00 13,2 11,9 12,2 9 5 16 9 NW 1007,8 15 0,0
20.05.2019 07:00:00 12,9 11,6 11,8 8 4 18 10 WNW 1007,4 15 0,0
20.05.2019 06:00:00 12,7 11,4 11,2 12 6 20 11 NW 1006,9 8 0,0
20.05.2019 05:00:00 12,9 12,1 12,2 9 5 19 10 NW 1006,6 8 0,0
20.05.2019 04:00:00 13,0 12,4 12,2 9 5 18 10 WNW 1006,7 4,9 0,0
20.05.2019 03:00:00 13,2 12,3 12,6 15 8 20 11 NW 1006,8 7 0,2
20.05.2019 02:00:00 13,2 12,7 12,7 11 6 18 10 WNW 1007,0 8 0,0
20.05.2019 01:00:00 13,3 12,8 12,6 9 5 16 9 WNW 1007,3 9 0,2
20.05.2019 00:00:00 13,2 12,6 12,7 11 6 16 9 W 1007,4 13 0,4
19.05.2019 23:00:00 13,3 12,7 12,6 6 3 9 5 W 1007,2 15 0,8
19.05.2019 22:00:00 13,5 12,4 12,6 4 2 10 6 W 1006,9 13 0,4
19.05.2019 21:00:00 13,9 11,6 12,6 6 3 13 7 W 1006,3 20 0,0
19.05.2019 20:00:00 15,0 11,4 14,8 11 6 16 9 W 1006,0 57 0,0
19.05.2019 19:00:00 16,0 11,8 15,9 11 6 16 9 W 1005,8 53 0,0
19.05.2019 18:00:00 15,6 12,3 16,3 13 7 23 13 WNW 1006,0 40 0,0
19.05.2019 17:00:00 15,1 11,9 15,4 13 7 24 13 NW 1006,0 38 0,0
19.05.2019 16:00:00 14,8 11,4 15,1 16 9 26 14 WNW 1006,1 42 0,0
19.05.2019 15:00:00 14,7 11,5 15,1 16 8 29 16 NW 1006,3 51 0,0
19.05.2019 14:00:00 15,0 12,3 16,4 18 10 29 16 WNW 1006,3 19 0,0
19.05.2019 13:00:00 14,2 11,9 14,6 16 8 24 13 NW 1006,4 18 0,2
19.05.2019 12:00:00 13,4 11,5 14,0 13 7 25 14 WNW 1006,4 13 0,2
19.05.2019 11:00:00 13,0 10,9 12,9 16 9 26 14 NW 1006,3 26 0,2
19.05.2019 10:00:00 12,2 10,6 11,8 16 9 24 13 NW 1006,4 39 0,4
19.05.2019 09:00:00 11,7 10,4 11,5 15 8 21 12 NW 1006,3 14 1,2
19.05.2019 08:00:00 12,0 10,4 11,7 13 7 19 10 NNW 1006,2 33 0,2
19.05.2019 07:00:00 12,0 10,2 11,6 11 6 18 10 N 1006,1 52 0,0
19.05.2019 06:00:00 12,4 11,3 11,7 8 4 13 7 NW 1006,1 35 0,0
19.05.2019 05:00:00 12,4 11,3 11,6 5 3 14 8 WNW 1006,0 38 0,0
19.05.2019 04:00:00 12,5 11,6 11,8 5 3 12 7 NNW 1006,2 21 0,2
19.05.2019 03:00:00 12,6 11,3 12,0 9 5 14 8 N 1006,5 52 0,0
19.05.2019 02:00:00 12,7 11,3 12,2 9 5 16 9 NNO 1006,9 46 0,0
19.05.2019 01:00:00 13,2 11,8 12,4 9 5 15 8 N 1007,1 45 0,0
19.05.2019 00:00:00 13,2 11,6 11,8 3 2 6 3 NNO 1007,2 48 0,0
18.05.2019 23:00:00 13,5 11,2 11,7 0 0 5 3 N 1007,4 53 0,0
18.05.2019 22:00:00 13,5 11,4 12,0 2 1 7 4 ZO 1007,2 41 0,0
18.05.2019 21:00:00 14,3 11,3 13,3 4 2 10 6 ZO 1006,6 50 0,0
18.05.2019 20:00:00 16,6 8,5 15,5 8 5 23 12 NW 1006,2 60 0,0
18.05.2019 19:00:00 18,5 8,5 21,6 18 10 29 16 NW 1005,4 39 0,0
18.05.2019 18:00:00 18,7 9,2 18,1 18 10 32 17 WNW 1005,1 44 0,0
18.05.2019 17:00:00 18,4 8,6 18,8 15 8 29 16 WZW 1004,7 55 0,0
18.05.2019 16:00:00 20,1 8,4 24,6 8 4 18 10 NNW 1004,6 46 0,0
18.05.2019 15:00:00 19,7 6,8 27,4 8 5 18 10 WNW 1004,8 40 0,0
18.05.2019 14:00:00 20,3 9,2 34,3 7 4 20 11 N 1005,2 39 0,0
18.05.2019 13:00:00 18,8 8,7 23,3 5 3 13 7 NNO 1005,8 20 0,0
18.05.2019 12:00:00 15,9 10,6 16,4 3 2 9 5 NW 1006,3 24 0,0
18.05.2019 11:00:00 13,7 10,5 15,4 5 3 13 7 WNW 1006,1 16 0,0
18.05.2019 10:00:00 13,3 10,5 14,8 8 5 12 6 WNW 1006,1 19 0,0
18.05.2019 09:00:00 12,2 10,3 12,6 3 1 6 4 W 1005,9 13 0,0
18.05.2019 08:00:00 11,1 10,3 9,3 0 0 3 1 N 1005,8 16 0,0
18.05.2019 07:00:00 9,9 9,4 8,3 0 0 5 3 N 1005,6 6 0,0
18.05.2019 06:00:00 10,4 9,6 8,6 4 2 12 6 NW 1005,5 6 0,0
18.05.2019 05:00:00 10,8 10,0 9,6 9 5 14 8 N 1005,6 9 0,0
18.05.2019 04:00:00 10,8 10,0 10,1 6 3 8 4 NW 1006,0 4,9 0,0
18.05.2019 03:00:00 11,0 10,2 10,1 3 1 4 2 NNW 1006,7 6 0,0
18.05.2019 02:00:00 11,3 10,5 10,6 4 2 9 5 NNW 1007,0 6 0,0
18.05.2019 01:00:00 11,5 10,7 10,4 4 2 8 4 WNW 1007,1 8 0,0
18.05.2019 00:00:00 11,8 10,7 10,8 5 3 10 5 WNW 1007,2 10 0,2
17.05.2019 23:00:00 12,3 11,0 11,1 5 3 8 5 NW 1007,5 12 0,0
17.05.2019 22:00:00 12,6 10,8 11,3 3 2 11 6 W 1007,2 18 0,0
17.05.2019 21:00:00 13,0 11,2 12,2 9 5 14 8 N 1006,5 19 0,0
17.05.2019 20:00:00 13,5 11,2 12,9 8 5 17 9 N 1006,3 22 0,0
17.05.2019 19:00:00 14,1 9,9 13,8 6 3 11 6 N 1005,7 42 0,0
17.05.2019 18:00:00 14,9 10,5 16,3 5 3 12 6 NNO 1006,1 20 0,0
17.05.2019 17:00:00 14,6 11,0 16,5 8 5 16 9 N 1006,5 20 0,2
17.05.2019 16:00:00 15,1 11,7 13,7 14 7 22 12 N 1006,3 20 0,0
17.05.2019 15:00:00 12,8 11,0 13,0 11 6 21 11 N 1006,5 20 0,8
17.05.2019 14:00:00 14,2 9,4 14,8 8 5 15 8 NNO 1007,0 17 0,0
17.05.2019 13:00:00 14,4 8,3 14,3 4 2 8 4 NW 1007,0 33 0,0
17.05.2019 12:00:00 13,8 8,8 14,8 5 3 12 7 W 1006,9 29 0,0
17.05.2019 11:00:00 13,5 8,5 12,8 4 2 6 3 N 1006,6 20 0,0

tt = temperatuur
td = dauwpunt
tt 5cm = temperatuur 5cm
ff = windsnelheid
fx = windstoten
dd = windrichting
ppp = luchtdruk
vv = zicht
rr = neerslag

Weerstations in de omgeving